Dothan, AL

5:21 AM CDT on April 19, 2018 (GMT -0500)
Dothan Regional

Weather History for KDHN - February, 2013

Change the Weather History Date:

Saturday, February 16, 2013

  Actual Average Record
Temperature  
Mean Temperature 43 °F 53 °F  
Max Temperature 52 °F 65 °F 81 °F (2018)
Min Temperature 33 °F 41 °F 23 °F (1958)
Degree Days  
Heating Degree Days 22 12  
Month to date heating degree days 1283 216  
Since 1 July heating degree days 2189 1432  
Moisture  
Dew Point 26 °F    
Average Humidity 52    
Maximum Humidity 82    
Minimum Humidity 24    
Precipitation  
Precipitation 0.01 in 0.22 in 1.45 in (1944)
Month to date precipitation 0.15 2.62  
Year to date precipitation 0.30 7.25  
Sea Level Pressure  
Sea Level Pressure 30.12 in    
Wind  
Wind Speed 12 mph (NW)    
Max Wind Speed 26 mph    
Max Gust Speed 33 mph    
Visibility 10 miles    
Events Rain    
T = Trace of Precipitation, MM = Missing Value Source: NWS Daily Summary

Daily Weather History Graph

Daily Weather History Graph

Search for Another Location

Airport or City:

Astronomy

Feb. 16, 2013 Rise Set
Actual Time 6:22 AM CST 5:30 PM CST
Civil Twilight 5:57 AM CST 5:54 PM CST
Nautical Twilight 5:28 AM CST 6:23 PM CST
Astronomical Twilight 5:00 AM CST 6:51 PM CST
Moon 10:02 AM CST (2/16) 11:56 PM CST (2/16)
Length of Visible Light 11h 57m
Length of Day
11h 08m
Waxing Crescent, 39% of the Moon is Illuminated
Feb 16
Waxing Crescent
Feb 17
First Quarter
Feb 25
Full
Mar 4
Last Quarter
Mar 11
New

Hourly Weather History & Observations

Time (CST) Temp. Windchill Dew Point Humidity Pressure Visibility Wind Dir Wind Speed Gust Speed Precip Events Conditions
12:53 AM 46.9 °F - 37.9 °F 71% 30.04 in 10.0 mi NNW 9.2 mph - N/A   Clear
1:53 AM 46.0 °F 42.5 °F 39.0 °F 76% 30.04 in 10.0 mi NNW 6.9 mph - N/A   Clear
2:53 AM 45.0 °F 40.1 °F 37.9 °F 76% 30.03 in 10.0 mi NW 9.2 mph - N/A   Clear
3:53 AM 44.1 °F 39.5 °F 37.9 °F 79% 30.04 in 10.0 mi NW 8.1 mph - N/A   Mostly Cloudy
4:53 AM 45.0 °F 41.8 °F 37.9 °F 76% 30.05 in 10.0 mi NW 5.8 mph - N/A   Overcast
5:53 AM 45.0 °F 39.3 °F 37.9 °F 76% 30.07 in 10.0 mi WNW 11.5 mph - N/A   Overcast
6:53 AM 44.1 °F 37.7 °F 39.0 °F 82% 30.09 in 10.0 mi WNW 12.7 mph - 0.00 in Rain Light Rain
7:53 AM 45.0 °F 39.7 °F 35.1 °F 68% 30.10 in 10.0 mi WNW 10.4 mph 26.5 mph 0.01 in Rain Light Rain
8:53 AM 48.0 °F - 35.1 °F 61% 30.10 in 10.0 mi WNW 16.1 mph - 0.00 in   Scattered Clouds
9:53 AM 50.0 °F - 30.9 °F 48% 30.10 in 10.0 mi NW 18.4 mph 26.5 mph N/A   Partly Cloudy
10:53 AM 48.9 °F - 28.9 °F 46% 30.10 in 10.0 mi NNW 19.6 mph 29.9 mph N/A   Scattered Clouds
11:53 AM 51.1 °F - 25.0 °F 36% 30.09 in 10.0 mi NW 21.9 mph 32.2 mph N/A   Scattered Clouds
12:53 PM 48.9 °F - 21.9 °F 35% 30.08 in 10.0 mi NW 19.6 mph 25.3 mph N/A   Mostly Cloudy
1:53 PM 48.9 °F - 21.0 °F 33% 30.08 in 10.0 mi NW 20.7 mph 27.6 mph N/A   Overcast
2:53 PM 48.0 °F - 16.0 °F 28% 30.09 in 10.0 mi NW 26.5 mph 32.2 mph N/A   Overcast
3:17 PM 48.2 °F - 14.0 °F 25% 30.09 in 4.0 mi NW 24.2 mph 33.4 mph N/A   Haze
3:53 PM 48.9 °F - 12.9 °F 24% 30.09 in 10.0 mi NW 26.5 mph 33.4 mph N/A   Scattered Clouds
4:53 PM 46.0 °F 37.8 °F 12.0 °F 25% 30.11 in 10.0 mi NW 23.0 mph 28.8 mph N/A   Clear
5:53 PM 43.0 °F 36.4 °F 12.9 °F 30% 30.15 in 10.0 mi NW 12.7 mph - N/A   Clear
6:53 PM 39.0 °F 34.0 °F 17.1 °F 41% 30.18 in 10.0 mi NW 6.9 mph - N/A   Clear
7:53 PM 37.0 °F 31.6 °F 19.0 °F 48% 30.21 in 10.0 mi WNW 6.9 mph - N/A   Clear
8:53 PM 36.0 °F 29.6 °F 19.0 °F 50% 30.24 in 10.0 mi WNW 8.1 mph - N/A   Clear
9:53 PM 35.1 °F 29.3 °F 19.0 °F 52% 30.26 in 10.0 mi NW 6.9 mph - N/A   Clear
10:53 PM 34.0 °F 28.0 °F 19.0 °F 54% 30.27 in 10.0 mi WNW 6.9 mph - N/A   Clear
11:53 PM 33.1 °F 27.7 °F 19.0 °F 56% 30.28 in 10.0 mi WNW 5.8 mph - N/A   Clear